Location: Passo di Treia
(43.2833°N, 13.3333°E)
Time: 04:14:39
(UTC+00:00)

Cosmos 1703 Rocket - Pass Details

Date: 09 December 2019
Orbit: 604 x 635 km, 82.5° (Epoch: 26 January)

Event Time Altitude Azimuth Distance (km) Brightness Sun altitude
Rises 16:31:54 0° 162° (SSE) 2,906 7.1 -10.8°
Reaches altitude 10° 16:34:18 10° 151° (SSE) 2,008 6.1 -11.2°
Maximum altitude 16:38:13 31° 90° (E) 1,117 4.4 -11.8°
Enters shadow 16:42:09 10° 29° (NNE) 2,024 5.8 -12.5°
